IW4DZV-13 Weather Reports


time (UTC)temp
C
wind
direction
speed
KPH
gust
KPH
rain 1hr
cm
rain 24hr
cm
rain mn
cm
humidity
%
barometer
mb
20260503053035 11 360 0.0 0.0 0.00 0.00 0.00 70 1018.7
20260503051518 10 360 0.0 0.0 0.00 0.00 0.00 74 1018.7
20260503050019 10 360 0.0 0.0 0.00 0.00 0.00 76 1018.7
20260503044516 10 360 0.0 0.0 0.00 0.00 0.00 76 1018.6
20260503043022 10 360 0.0 0.0 0.00 0.00 0.00 76 1018.7
20260503041512 9 360 0.0 0.0 0.00 0.00 0.00 76 1018.6
20260503040017 9 360 0.0 0.0 0.00 0.00 0.00 76 1018.6
20260503034509 9 360 0.0 0.0 0.00 0.00 0.00 75 1018.6
20260503033008 10 360 0.0 0.0 0.00 0.00 0.00 74 1018.5
20260503031506 10 360 0.0 0.0 0.00 0.00 0.00 74 1018.5
20260503030004 10 360 0.0 0.0 0.00 0.00 0.00 73 1018.4
20260503024502 10 360 0.0 0.0 0.00 0.00 0.00 71 1018.6
20260503023110 11 360 0.0 0.0 0.00 0.00 0.00 70 1018.6
20260503021558 11 360 0.0 0.0 0.00 0.00 0.00 69 1018.8
20260503020058 11 360 0.0 0.0 0.00 0.00 0.00 69 1018.8
20260503014600 11 360 0.0 0.0 0.00 0.00 0.00 69 1018.8
20260503013057 11 360 0.0 0.0 0.00 0.00 0.00 69 1018.9
20260503011555 11 360 0.0 0.0 0.00 0.00 0.00 68 1018.9
20260503010054 11 360 0.0 0.0 0.00 0.00 0.00 68 1019.0
20260503004553 11 360 0.0 0.0 0.00 0.00 0.00 67 1019.1
20260503003052 11 360 0.0 0.0 0.00 0.00 0.00 67 1019.1
20260503001549 11 360 0.0 0.0 0.00 0.00 0.00 66 1019.2
20260503000049 12 360 0.0 0.0 0.00 0.00 0.00 64 1019.3
20260502234552 12 360 0.0 0.0 0.00 0.00 0.00 64 1019.3
20260502233042 12 360 0.0 0.0 0.00 0.00 0.00 62 1019.4
20260502231540 12 360 0.0 0.0 0.00 0.00 0.00 61 1019.6
20260502230036 13 360 0.0 0.0 0.00 0.00 0.00 59 1019.7
20260502224533 13 360 0.0 0.0 0.00 0.00 0.00 60 1019.7
20260502223030 14 360 0.0 0.0 0.00 0.00 0.00 59 1019.8
20260502221525 15 360 0.0 0.0 0.00 0.00 0.00 57 1019.9
20260502220023 15 360 0.0 0.0 0.00 0.00 0.00 56 1019.9
20260502214534 15 360 0.0 0.0 0.00 0.00 0.00 55 1020.0
20260502213022 15 360 0.0 0.0 0.00 0.00 0.00 55 1020.0
20260502211528 15 360 0.0 0.0 0.00 0.00 0.00 55 1020.0
20260502210026 15 360 0.0 0.0 0.00 0.00 0.00 56 1020.1
20260502204521 15 360 0.0 0.0 0.00 0.00 0.00 58 1020.2
20260502203021 15 360 0.0 0.0 0.00 0.00 0.00 58 1020.2
20260502201520 15 360 0.0 0.0 0.00 0.00 0.00 58 1020.3
20260502200020 15 360 0.0 0.0 0.00 0.00 0.00 57 1020.3
20260502194519 15 360 0.0 0.0 0.00 0.00 0.00 56 1020.2
20260502193018 16 360 0.0 0.0 0.00 0.00 0.00 54 1020.2
20260502191521 16 360 0.0 0.0 0.00 0.00 0.00 53 1020.2
20260502190018 17 360 0.0 0.0 0.00 0.00 0.00 51 1020.2
20260502184517 18 360 0.0 0.0 0.00 0.00 0.00 48 1020.0
20260502183018 18 360 0.0 0.0 0.00 0.00 0.00 46 1019.9
20260502181516 19 360 0.0 0.0 0.00 0.00 0.00 41 1019.8
20260502163013 21 360 1.6 0.0 0.00 0.00 0.00 36 1020.2
20260502161508 22 360 1.6 0.0 0.00 0.00 0.00 36 1020.3
20260502151504 22 360 1.6 0.0 0.00 0.00 0.00 33 1020.7
20260502123050 23 360 1.6 0.0 0.00 0.00 0.00 33 1022.9
20260502121551 22 360 1.6 0.0 0.00 0.00 0.00 34 1022.9
20260502114546 22 360 1.6 0.0 0.00 0.00 0.00 32 1023.2
20260502113042 22 360 1.6 0.0 0.00 0.00 0.00 35 1023.4
20260502111550 22 360 1.6 0.0 0.00 0.00 0.00 32 1023.6
20260502110040 22 360 0.0 0.0 0.00 0.00 0.00 33 1023.8
20260502104537 22 360 1.6 0.0 0.00 0.00 0.00 34 1024.2
20260502103043 22 360 1.6 0.0 0.00 0.00 0.00 36 1024.3
20260502101532 22 360 1.6 0.0 0.00 0.00 0.00 31 1024.5
20260502091519 21 360 0.0 0.0 0.00 0.00 0.00 38 1025.0
20260502070046 16 360 0.0 0.0 0.00 0.00 0.00 51 1025.7
20260502064542 15 360 0.0 0.0 0.00 0.00 0.00 55 1025.6
20260502063045 15 360 0.0 0.0 0.00 0.00 0.00 55 1025.7
20260502061537 14 360 0.0 0.0 0.00 0.00 0.00 55 1025.6
20260502060030 13 360 0.0 0.0 0.00 0.00 0.00 56 1025.6
20260502054533 12 360 0.0 0.0 0.00 0.00 0.00 59 1025.6